Hourly Data Report for September 24, 2017

All times are specified in Local Standard Time (LST). Add 1 hour to adjust for Daylight Saving Time where and when it is observed.

PETAWAWA AWOS 2
ONTARIO

45°57'00.000" N
77°19'00.000" W
130.10 m
6106396
71625
YWA

Download Data

Hourly Data (September 2017)
Hourly Data Report for September 24, 2017
Temp Definition
°C
Dew Point Temp Definition
°C
Rel Hum Definition
%
Wind Dir Definition
10's deg

Wind Spd Definition
km/h
Visibility Definition
km
Stn Press Definition
kPa
Hmdx Definition


Wind Chill Definition


Weather Definition


TIME
00:00 17.6 16.8 95   0 4.0 100.19     LegendNANA
01:00 18.0 17.9 99   0 1.3 100.24     LegendNANA
02:00 17.1 16.3 95   0 9.7 100.25     LegendNANA
03:00 18.0 17.1 94 28 6 12.9 100.28     LegendNANA
04:00 17.8 17.2 96   0 11.3 100.30     LegendNANA
05:00 16.7 16.2 97 25 6 1.9 100.32     LegendNANA
06:00 17.1 16.7 98 23 7 5.6 100.34     LegendNANA
07:00 18.5 17.8 96   0 9.7 100.37     LegendNANA
08:00 21.2 19.3 89 31 6 14.5 100.39 28   LegendNANA
09:00 23.6 19.4 77 32 13 14.5 100.39 31   LegendNANA
10:00 26.0 20.5 72 32 7 14.5 100.36 34   LegendNANA
11:00 26.3 21.1 73 35 4 14.5 100.33 35   LegendNANA
12:00 27.7 21.6 69 7 6 14.5 100.30 37   LegendNANA
13:00 28.6 22.4 69 6 6 14.5 100.26 38   LegendNANA
14:00 29.7 22.5 65 5 7 14.5 100.22 39   LegendNANA
15:00 30.9 21.4 57 36 7 14.5 100.18 40   LegendNANA
16:00 32.0 19.2 47 33 9 14.5 100.14 39   LegendNANA
17:00 31.1 19.5 50 34 7 14.5 100.14 38   LegendNANA
18:00 26.7 22.2 76   0 14.5 100.16 36   LegendNANA
19:00 23.9 21.2 85   0 14.5 100.18 32   LegendNANA
20:00 21.7 20.6 94   0 14.5 100.21 30   LegendNANA
21:00 22.2 20.5 90   0 14.5 100.24 30   LegendNANA
22:00 20.2 19.4 95   0 9.7 100.25 27   LegendNANA
23:00 19.5 18.7 95   0 4.0 100.25     LegendNANA

Notes on Data Quality.

Legend

  • E = Estimated
  • M = Missing
  • NA = Not Available
  • ‡ = Partner data that is not subject to review by the National Climate Archives
Date modified: